Location: Haram ta Haram Freeway
(35.0583°N, 51.4202°E)
Time: 02:50:41
(UTC+03:30)

IRIDIUM 33 DEB - Pass Details

Date: 02 December 2021
Orbit: 663 x 816 km, 86.4° (Epoch: 21 January)

Event Time Altitude Azimuth Distance (km) Brightness Sun altitude
Rises 20:15:18 0° 224° (SW) 3,340 ? -40.9°
Reaches altitude 10° 20:18:40 10° 245° (WSW) 2,408 ? -41.6°
Maximum altitude 20:21:53 16° 282° (WNW) 2,016 ? -42.2°
Enters shadow 20:22:42 15° 293° (WNW) 2,040 ? -42.4°
